Regional Weather Roundup
Issued by NWS Albany, NY

Home | Current Version | Previous Version | Graphics & Text | Print | Product List | Glossary On
Versions: 1 2 3 4 5 6 7 8 9 10 11 12 13 14 15 16 17 18 19 20 21 22 23 24 25 26 27 28 29 30 31 32 33 34 35 36 37 38 39 40 41 42 43 44 45 46 47 48 49 50
000
ASUS41 KALY 201810
RWRALY

NEW YORK STATE HOURLY WEATHER ROUNDUP
NATIONAL WEATHER SERVICE ALBANY NY
200 PM EDT WED AUG 20 2014

NOTE: "FAIR" INDICATES FEW OR NO CLOUDS BELOW 12,000 FEET WITH NO
SIGNIFICANT WEATHER AND/OR NO OBSTRUCTIONS TO VISIBILITY.

NYZ032-033-038>043-046>054-057>066-NYZ062>081-201900-
EAST


CITY           SKY/WX    TMP DP  RH WIND       PRES   REMARKS
ALBANY         MOSUNNY   81  65  58 SE7       29.97F
GLENS FALLS    MOSUNNY   78  64  61 SE5       29.97F
POUGHKEEPSIE   MOSUNNY   83  65  54 CALM      29.96F
NEWBURGH       MOSUNNY   81  66  61 VRB6      29.99F
MONTGOMERY     PTSUNNY   82  65  56 SW8       29.97F
WHITE PLAINS   MOSUNNY   81  63  54 SE9       29.99F
ISLIP          MOSUNNY   79  57  46 S12       29.99S
NEW YORK CITY  MOSUNNY   81  58  45 S14       29.98F
CENTRAL PARK   MOSUNNY   82  58  43 VRB6      30.01F
$$

NYZ005>009-017-018-044>046-055-056-201900-
CENTRAL


CITY           SKY/WX    TMP DP  RH WIND       PRES   REMARKS
FULTON         CLOUDY    77  68  73 SW5       29.93S
SYRACUSE       LGT RAIN  79  70  74 NW3       29.92S
ROME           MOSUNNY   81  69  67 SE7       29.95F
ELMIRA         LGT RAIN  73  70  90 E3        29.94S FOG
BINGHAMTON     PTSUNNY   76  66  71 S7        29.98F
MONTICELLO     MOSUNNY   79  64  61 S12       30.02F
$$

NYZ026>034-041>043-201900-
NORTH


CITY           SKY/WX    TMP DP  RH WIND       PRES   REMARKS
WATERTOWN      MOSUNNY   80  66  62 W9        29.92S
FORT DRUM      NOT AVBL
MASSENA        MOSUNNY   78  63  59 NE10      29.95F
SARANAC LAKE   PTSUNNY   77  61  57 VRB3      29.98F
PLATTSBURGH    PTSUNNY   77  62  59 SE9       29.97F
$$

NYZ001>004-010>016-019>021-201900-
WEST


CITY           SKY/WX    TMP DP  RH WIND       PRES   REMARKS
NIAGARA FALLS  CLOUDY    74  64  71 SW9       29.91R
BUFFALO        CLOUDY    76  63  64 SW8       29.91S
DUNKIRK        CLOUDY    75  64  68 S10       29.92R
JAMESTOWN      CLOUDY    70  63  78 S7        29.96R
WELLSVILLE     LGT RAIN  73  64  73 S5        30.00R
ROCHESTER      CLOUDY    78  63  59 SW3       29.92F
PENN YAN       LGT RAIN  73  69  87 SW5       29.95S FOG
$$

             KEY
       WCI = WIND CHILL INDEX
       VSB = VISIBILITY
       HX  = HEAT INDEX
$$


USA.gov is the U.S. government's official web portal to all federal, state and local government web resources and services.